Location: Focicchia
(42.2496°N, 9.2935°E)
Time: 02:47:55
(UTC+00:00)

STARLINK-24 - Pass Details

Date: 07 June 2020
Orbit: 526 x 527 km, 53.0° (Epoch: 05 July)

Event Time Altitude Azimuth Distance (km) Brightness Sun altitude
Exits shadow 01:28:34 34° 158° (SSE) 886 4.3 -18.7°
Maximum altitude 01:29:14 36° 134° (SE) 841 4.4 -18.6°
Drops below altitude 10° 01:32:56 10° 67° (ENE) 1,769 7.0 -18.3°
Sets 01:35:15 0° 59° (ENE) 2,663 8.2 -18.0°
